Location: ??
(34.7252°N, 135.5457°E)
Time: 09:24:05
(UTC+00:00)

PAYLOAD A - Pass Details

Date: 24 September 2020
Orbit: 691 x 832 km, 98.3° (Epoch: 23 October)

Event Time Altitude Azimuth Distance (km) Brightness Sun altitude
Rises 19:28:11 0° 1° (N) 3,070 7.3 -17.1°
Reaches altitude 10° 19:30:36 10° 352° (N) 2,151 6.4 -16.6°
Maximum altitude 19:34:46 33° 289° (WNW) 1,167 4.5 -15.8°
Enters shadow 19:36:34 25° 249° (WSW) 1,408 4.8 -15.4°
